Home > Weather > Bad Radkersburg > Past weeks

Flag for Austria Past Weather in Bad Radkersburg, Styria, Austria — Yesterday and Last 2 Weeks

Now
65 °F

Mild.


Feels Like: 65 °F
Forecast: 56 / 85 °F
Wind: 1 mph from East

Location: Murska Sobota

Current Time: Aug 28, 2016 at 12:29:02 AM

Latest Report: Aug 27, 2016 at 11:00 PM


Visibility: N/A

Pressure: 30.13 "Hg

Humidity: 84%

Dew Point: 60 °F

Location of Bad RadkersburgLocation

Past Weather in Bad Radkersburg — Graph

°F

Bad Radkersburg Temperature Yesterday

Maximum temperature yesterday: 84 °F (at 5:00 PM)
Minimum temperature yesterday: 54 °F (at 5:00 AM)
Average temperature yesterday: 69 °F

High & Low Weather Summary for the Past Weeks

 TemperatureHumidityPressure
High84 °F (Aug 27, 5:00 PM)100% (Aug 16, 7:00 AM)30.32 "Hg (Aug 16, 7:00 AM)
Low54 °F (Aug 14, 6:00 AM)40% (Aug 26, 6:00 PM)29.83 "Hg (Aug 18, 6:00 PM)
Average67 °F78%30.10 "Hg
* Reported Aug 12 11:00 PM — Aug 27 11:00 PM, Bad Radkersburg, Weather by CustomWeather, © 2016

Note: Actual official high and low records may vary slightly from our data, if they occured in-between our weather recording intervals... More about our weather records

Advertising

Bad Radkersburg Weather History for the Previous 24 Hours

Scroll right to see more
 ConditionsComfort  
Time TempWeatherWind HumidityBarometerVisibility
11:00 PM
Sat, Aug 27
65 °FMild.1 mph84%30.13 "HgN/A
10:00 PM68 °FMild.1 mph83%30.13 "HgN/A
9:00 PM71 °FMild.1 mph77%30.12 "HgN/A
8:00 PM74 °FMild.1 mph70%30.11 "HgN/A
7:00 PM80 °FWarm.1 mph56%30.10 "HgN/A
6:00 PM82 °FWarm.2 mph51%30.10 "HgN/A
5:00 PM84 °FWarm.1 mph46%30.11 "HgN/A
3:00 PM83 °FWarm.2 mph46%30.13 "HgN/A
2:00 PM81 °FWarm.2 mph51%30.14 "HgN/A
1:00 PM82 °FWarm.2 mph55%30.15 "HgN/A
12:00 PM80 °FWarm.No wind56%30.17 "HgN/A
11:00 AM75 °FMild.1 mph63%30.19 "HgN/A
10:00 AM70 °FMild.1 mph71%30.20 "HgN/A
9:00 AM65 °FMild.2 mph84%30.20 "HgN/A
8:00 AM60 °FCool.2 mph94%30.21 "HgN/A
5:00 AM54 °FCool.1 mph97%30.20 "HgN/A
4:00 AM54 °FCool.No wind96%30.21 "HgN/A
3:00 AM55 °FCool.1 mph94%30.20 "HgN/A
2:00 AM56 °FCool.No wind95%30.20 "HgN/A
1:00 AM56 °FCool.No wind92%30.20 "HgN/A
12:00 AM58 °FCool.1 mph93%30.20 "HgN/A
Weather by CustomWeather, © 2016

See weather overviewHow to use our weather pages